Location: *
(0.1100°N, 5.5000°E)
Time: 08:23:00
(UTC+00:00)

Cosmos 1818 - Visible Passes

Search period start: 02 December 2023 00:00
Search period end: 12 December 2023 00:00
Orbit: 772 x 800 km, 65.0° (Epoch: 01 December)

Date Brightness Start Highest point End Pass type
(mag) Time Alt. Az. Time Alt. Az. Time Alt. Az.
02 Dec 3.6 04:45:49 10° NNW 04:51:13 74° WSW 04:56:36 10° SSE visible
03 Dec 3.8 04:14:01 12° NNW 04:19:06 71° ENE 04:24:28 10° SSE visible
04 Dec 4.5 03:43:46 21° N 03:46:58 45° ENE 03:52:05 10° SE visible
05 Dec 5.1 03:13:28 26° NE 03:14:49 29° ENE 03:19:25 10° SE visible
05 Dec 5.0 04:54:20 10° WNW 04:58:06 19° WSW 05:01:52 10° SSW visible
06 Dec 5.8 02:43:06 18° ENE 02:43:06 18° ENE 02:46:20 10° ESE visible
06 Dec 4.5 04:23:47 22° WNW 04:25:57 30° WSW 04:30:37 10° S visible
07 Dec 3.8 03:53:23 45° W 03:53:49 46° WSW 03:58:58 10° S visible
08 Dec 4.0 03:22:52 54° S 03:22:52 54° S 03:27:04 10° SSE visible
09 Dec 5.2 02:52:18 29° SSE 02:52:18 29° SSE 02:54:55 10° SSE visible
10 Dec 6.2 02:21:39 15° SE 02:21:39 15° SE 02:22:33 10° SE visible
10 Dec 5.7 04:02:19 11° SW 04:02:19 11° SW 04:02:39 10° SW visible
11 Dec 5.8 03:31:36 12° SSW 03:31:36 12° SSW 03:32:18 10° SSW visible
